Regional Weather Roundup
Issued by NWS Goodland, KS

Home | Current Version | Previous Version | Graphics & Text | Print | Product List | Glossary On
Versions: 1 2 3 4 5 6 7 8 9 10 11 12 13 14 15 16 17 18 19 20 21 22 23 24 25 26 27 28 29 30 31 32 33 34 35 36 37 38 39 40 41 42 43 44 45 46 47 48 49 50
506
ASUS43 KGLD 212108
RWRGLD

GOODLAND FORECAST AREA HOURLY WEATHER ROUNDUP
NATIONAL WEATHER SERVICE GOODLAND KS
200 PM MST SAT JAN 21 2017

...OFFICIAL OBSERVATIONS...

CITY           SKY/WX    TMP DP  RH WIND       PRES   REMARKS
GOODLAND KS    CLOUDY    47  34  60 E10       29.37S
HILL CITY KS   CLOUDY    53  36  52 SE10      29.41R
IMPERIAL NEB   CLOUDY    47  27  45 CALM      29.41R
MCCOOK NEB     SUNNY     52  30  43 N3        29.42R
AKRON CO       SUNNY     43  24  47 SE16      29.38R
BURLINGTON CO  CLOUDY    44  35  70 E12       29.37S
LIMON CO       CLOUDY    39  27  62 SE12      29.36R
$$

...UNOFFICIAL OBSERVATIONS...

CITY           SKY/WX    TMP DP  RH WIND       PRES   REMARKS
LENORA KS        N/A     52  32  46 CALM        N/A
NORTON KS      SUNNY     50  32  50 N6        29.41R
SHARON SPRINGS   N/A     48  37  66 E12G18      N/A
TRENTON NEB      N/A     52  32  46 CALM        N/A
KIT CARSON CO    N/A     42  33  70 MISG        N/A
YUMA CO        FAIR      41  27  56 E9        29.39R
$$




USA.gov is the U.S. government's official web portal to all federal, state and local government web resources and services.